Location: Newark
(52.4019°N, 0.6844°W)
Time: 07:43:33
(UTC+00:00)

ISS - Visible Passes

Search period start: 21 November 2019 00:00
Search period end: 01 December 2019 00:00
Orbit: 412 x 421 km, 51.6° (Epoch: 21 November)

Date Brightness Start Highest point End Pass type
(mag) Time Alt. Az. Time Alt. Az. Time Alt. Az.
23 Nov -1.6 18:15:15 10° SSW 18:16:40 17° S 18:16:40 17° S visible
24 Nov -1.6 17:27:46 10° S 17:29:34 14° SE 17:30:22 13° SE visible
24 Nov -1.0 19:02:29 10° SW 19:03:17 16° SW 19:03:17 16° SW visible
25 Nov -2.6 18:14:18 10° SW 18:16:55 33° S 18:16:55 33° S visible
26 Nov -2.3 17:26:16 10° SSW 17:29:07 26° SSE 17:30:29 20° ESE visible
26 Nov -1.2 19:02:11 10° WSW 19:03:23 20° WSW 19:03:23 20° WSW visible
27 Nov -1.8 16:38:26 10° S 16:40:51 19° SE 16:43:17 10° E visible
27 Nov -3.4 18:13:50 10° WSW 18:16:54 55° S 18:16:54 55° S visible
28 Nov -3.1 17:25:32 10° SW 17:28:46 44° SSE 17:30:23 24° E visible
28 Nov -1.2 19:01:59 10° W 19:03:17 22° W 19:03:17 22° W visible
29 Nov -2.6 16:37:20 10° SW 16:40:23 33° SSE 16:43:29 10° E visible
29 Nov -3.7 18:13:33 10° WSW 18:16:45 73° SSW 18:16:45 73° SSW visible
30 Nov -3.6 17:25:08 10° WSW 17:28:28 67° SSE 17:30:11 26° E visible
30 Nov -1.2 19:01:48 10° W 19:03:05 21° W 19:03:05 21° W visible
